Regional Weather Roundup
Issued by NWS Wakefield, VA

Home | Current Version | Previous Version | Text Only | Print | Product List | Glossary On
Versions: 1 2 3 4 5 6 7 8 9 10 11 12 13 14 15 16 17 18 19 20 21 22 23 24 25 26 27 28 29 30 31 32 33 34 35 36 37 38 39 40 41 42 43 44 45 46 47 48 49 50
000
ASUS41 KAKQ 250515
RWRAKQ

REGIONAL WEATHER ROUNDUP
NATIONAL WEATHER SERVICE WAKEFIELD VA
100 AM EDT SUN JUN 25 2017

Note: "fair" indicates few or no clouds below 12,000 feet with no
significant weather and/or obstructions to visibility. * = Denotes
station may not report precipitation (e.g., rain,snow,etc.),
thunder or fog.

VAZ042-051-052>054-056-250600-
NORTHERN VIRGINIA

CITY           SKY/WX    TMP DP  RH WIND       PRES   REMARKS
WASH NATIONAL  PTCLDY    74  65  73 N8        29.97S
DULLES         PTCLDY    67  61  81 CALM      29.98S
FORT BELVOIR   CLEAR     65  62  90 SE3       29.97R
QUANTICO       PTCLDY    71  67  87 NW7       29.98R
FREDERICKSBRG* CLEAR     68  64  86 CALM      29.96S
STAFFORD*      PTCLDY    64  64 100 NW8       30.02R
WARRENTON      PTCLDY    65  61  86 CALM      29.98S
CULPEPER*      PTCLDY    67  65  94 CALM      30.00S
MANASSAS*      PTCLDY    65  63  93 SE3       29.98S
LEESBURG*      CLOUDY   N/A N/A N/A NW9       29.99F
WINCHESTER     CLOUDY    68  55  64 CALM      30.01S
FRONT ROYAL*   CLOUDY    68  59  73 S3        30.01S
LURAY*         PTCLDY    64  61  88 CALM      30.03S
$$

VAZ048-049-060>072-079>083-250600-
CENTRAL AND SOUTH CENTRAL VIRGINIA

CITY           SKY/WX    TMP DP  RH WIND       PRES   REMARKS
RICHMOND       PTCLDY    73  70  90 SW8       29.98R
CHESTERFIELD*  MOCLDY    74  70  87 CALM      29.98S
PETERSBURG*    PTCLDY    70  69  98 CALM      29.99R
HANOVER        CLEAR     69  65  86 CALM      29.98S
TAPPAHANNOCK*  CLEAR     68  68 100 CALM      29.97F
QUINTON*       FAIR      71  71 100 W9        29.97R
CHARLOTTSVILLE CLEAR     68  64  87 CALM      30.00S
GORDONSVILLE*  CLEAR     67  62  84 NW5       29.99S
ORANGE*        CLEAR     66  61  82 CALM      29.99S
LOUISA*        CLEAR     70  66  88 CALM      29.98S FOG
BUMPASS*       FAIR      68  67  94 SW7       29.98S
FARMVILLE*     CLEAR     73  70  91 W5        29.99R
CREWE*         FAIR      73  69  87 CALM      29.99F
FORT PICKETT*  MOCLDY    73  69  88 SW8       30.00S
CHASE CITY*    FAIR      71  71  99 CALM      30.02S
CLARKSVILLE*   CLOUDY    72  72 100 CALM      30.02R
SOUTH HILL*    CLOUDY    72  72 100 S5        30.07S
LAWRENCEVILLE* MOCLDY    72  71  96 SW5       30.01R
EMPORIA*       PTCLDY    72  72 100 CALM      30.01S
$$

VAZ088>098-250600-
SOUTHEAST VIRGINIA

CITY           SKY/WX    TMP DP  RH WIND       PRES   REMARKS
NORFOLK        CLOUDY    75  71  87 SW9       29.96S
VIRGINIA BEACH MOCLDY    73  70  90 SW6       29.96S
NORFOLK NAVAL  NOT AVBL
WEST POINT*    PTCLDY    71  69  94 CALM      29.97S
SALUDA*        FAIR      74  74  99 CALM      29.96S
NEWPORT NEWS   PTCLDY    77  72  84 SW5       29.96F
LANGLEY AFB    CLOUDY    75  72  90 W8        29.96S
FORT EUSTIS    PTCLDY    76  71  83 SW6       29.95S
WILLIAMSBURG*  MOCLDY    77  70  78 CALM      29.98R
HR EXEC AP*    FAIR      72  70  94 SW3       29.96R
FRANKLIN*      CLOUDY    72  68  88 SW3       29.98S
US460-WAKEFLD  PTCLDY    72  69  90 VRB3      29.98R
$$

VAZ020-022-025-037-045-250600-
WEST CENTRAL AND SOUTHWEST VIRGINIA

CITY           SKY/WX    TMP DP  RH WIND       PRES   REMARKS
STAUNTON*      CLEAR     61  56  84 CALM      30.07S
WAYNESBORO*    CLEAR     62  58  88 CALM      30.07R
HOT SPRINGS VA CLEAR     61  46  59 W13       30.17S
LYNCHBURG      CLEAR     63  59  87 CALM      30.03S
DANVILLE       CLEAR     70  70 100 CALM      30.04R
SOUTH BOSTON*  MOCLDY    72  70  95 SW3       30.03R
MARTINSVILLE   PTCLDY    64  61  92 CALM      30.07S
ROANOKE        CLEAR     68  58  70 W3        30.07S
BLACKSBURG     CLEAR     60  57  88 CALM      30.15S
DUBLIN*        CLEAR     64  54  69 W5        30.13S
MARION*        PTCLDY    60  56  89 CALM      30.18S
HILLSVILLE*    CLEAR     66  53  63 CALM      30.14S
RICHLANDS*     MOCLDY    65  58  79 W3        30.17S
WISE*          PTCLDY    61  59  94 CALM      30.20S
ABINGDON*      MOCLDY    70  59  69 N5        30.15S
$$

MDZ021>025-VAZ099-100-250600-
SOUTHERN MARYLAND AND THE DELMARVA PENINSULA

CITY           SKY/WX    TMP DP  RH WIND       PRES   REMARKS
PATUXENT RIVER CLEAR     69  64  84 SW3       29.95F
BAY BRIDGE APT CLEAR     73  64  73 CALM      29.96R
LEONARDTOWN    PTCLDY    66  63  88 CALM      29.98S
DOVER          CLEAR     71  66  83 SW5       29.94S
GEORGETOWN     MOCLDY    69  64  84 CALM      29.96F
EASTON         PTCLDY    71  64  78 CALM      29.99F
CAMBRIDGE      CLEAR     66  64  94 CALM      29.95F
SALISBURY      CLOUDY    70  67  90 SE3       29.95F
OCEAN CITY     CLOUDY    71  70  96 CALM      29.96S
WALLOPS ISLAND CLOUDY    73  70  90 CALM      29.95F
ACCOMACK*      MOCLDY    75  72  90 CALM      29.95F
$$

NCZ012>017-030>032-250600-
NORTH CENTRAL AND EASTERN NORTH CAROLINA

CITY           SKY/WX    TMP DP  RH WIND       PRES   REMARKS
ROANOKE RAPIDS FAIR      70  70 100 SW6       30.01S
RALEIGH        MOCLDY    72  70  93 CALM      30.02F
ELIZABETH CITY CLOUDY    73  73 100 SW7       29.98R
AHOSKIE*         N/A     70  69  98 S3        30.00S
EDENTON*       CLOUDY    75  72  92 CALM      30.00R
CURRITUCK*     CLOUDY   N/A N/A N/A CALM      29.98R
KILL DEVIL HLS DRIZZLE   74  74 100 CALM      29.96F
MANTEO         DRIZZLE   75  73  93 CALM      29.98F
CAPE HATTERAS  CLOUDY    77  73  87 W13G22    30.02S
TARBORO*       NOT AVBL
GOLDSBORO      CLOUDY    73  73 100 CALM      30.00F
WASHINGTON     CLOUDY   N/A N/A N/A S5        30.01S
GREENVILLE     CLOUDY    73  73 100 CALM      30.03S
NEW BERN       CLOUDY    73  73 100 SW6       30.02S
WILMINGTON     LGT RAIN  77  76  96 SW3       30.04R FOG
$$

VAZ048-250600-
ELSEWHERE

CITY           SKY/WX    TMP DP  RH WIND       PRES   REMARKS
HARRISBURG PA  CLEAR     72  63  73 N3        29.96R
BALTIMORE      PTCLDY    68  63  84 W6        29.96S
ANNAPOLIS      CLEAR     70  68  93 CALM      29.95S
ANDREWS AFB    CLEAR     68  59  72 NW5       29.96S
PHILADELPHIA   PTCLDY    75  61  61 SW6       29.93F
HENDERSON NC   CLOUDY    68  67  96 CALM      30.04R
GREENSBORO     PTCLDY    70  70 100 SW5       30.04S
ROCKY MOUNT    CLOUDY    71  71 100 CALM      30.01F
$$

VAZ100-250600-
MARINE

STATION/POSITION TIME  TEMP    WIND        PRES    WAVE   SWELL
                       AIR SEA DIR/SP/G            HT/PER HT/PER
                 (UTC) (F)     (DEG/KT/KT) (MB)    (FT/S) (FT/S)
BRANDYWINE LGT   0448          250/  8/  8   N/A
CAPE MAY NJ      0448   72 68  210/  2/  3 1013.8F
LEWES DE         0448   77 72  250/  5/  6 1014.0F
15NM E FENWICK I 0350   70 67  210/  8/ 10 1014.8    4/ 8   3/ 8
WACHAPREAGUE VA  0448   77 81  250/  2/  3 1013.9F
THOMAS POINT MD  0500   77 78  290/  5/  5   N/A
GOOSES REEF MD   0450   79     260/  4/  4 1015.3S
COVE POINT MD    0448   80      CALM  /  1 1014.9F
SOLOMONS ISLAND  0448   74 76  330/  3/  4   N/A
BISHOPS HEAD MD  0448   79 83  330/  1/  1 1014.4F
PINEY POINT MD   0448           CALM  /  1   N/A
POTOMAC MD       0450   79        CALM     1013.3F
CAMBRIDGE MD     0448   73 82              1015.0F
LEWISETTA VA     0448   76 79  250/  3/  3 1014.1F
RAPPAHANNOCK LGT 0448          220/ 11/ 16 1014.7F
STINGRAY PT      0450   81     350/  4/  4 1014.3F
YORK RVR RNG VA  0448   79     270/ 10/ 12 1014.8R
YORKTOWN VA      0448   78 78  280/  5/  6 1014.4R
JAMESTOWN VA     0450   78     230/  4/  6   N/A
DOMINION TERM VA 0448   77     210/  7/  8 1014.9S
KIPTOPEKE VA     0448      77  220/  9/ 10   N/A
CHES BAY BRIDGE  0448   76 74  230/  8/  8 1014.3F
CAPE HENRY VA    0448   75     220/  6/  8   N/A
WILLOUBY STN VA  0448   77     220/ 11/ 12 1014.5S
S CRANEY ISL VA  0448   76     230/  6/  7 1014.6R
CAPE HENRY BUOY  0430      74                N/A     2/ 9
1ST LANDING BUOY 0450   75                 1014.5F
CAPE CHARLES BUO 0451      72                N/A     2/10
64NM E OF VA BCH 0450   73 72  190/ 12/ 14 1014.5F   5/ 7   3/ 7
DUCK PIER NC     0448   74 63  170/  4/  5 1014.0F
44100 DUCK FRF   0405      71                N/A     3/ 8
OREGON INLET NC  0448          220/  9/ 10   N/A
HATTERAS NC      0448   76 79  260/ 13/ 18 1016.2F
DIAMOND SHLS NC  0450   80 80  260/ 19/ 23 1016.0R   7/ 7
CAPE LOOKOUT NC  0500   75     260/ 14/ 16 1016.7S
$$



USA.gov is the U.S. government's official web portal to all federal, state and local government web resources and services.